Flag for Vietnam Weather past 2 weeks in Ho Chi Minh, Vietnam

Now
79 °F

Partly sunny.


Feels Like: 82 °F
Forecast: 76 / 87 °F
Wind: 14 mph from Southwest

Location: Ho Chi Minh

Current Time: Sep 16, 2014 at 8:37:49 AM

Latest Report: Sep 16, 2014 at 8:00 AM


Visibility: N/A

Pressure: 29.71 "Hg

Humidity: 84%

Dew point: 73 °F

Location of Ho Chi MinhLocation

Historic Weather in Ho Chi Minh — Graph

°F

Ho Chi Minh temperature yesterday

Maximum temperature yesterday: 88 °F (at 11:00 AM)
Minimum temperature yesterday: 79 °F (at 12:00 AM)
Average temperature yesterday: 81 °F

Past Weeks' High & Low Weather Summary

 TemperatureHumidityPressure
High93 °F (Sep 4, 3:00 PM)94% (Sep 3, 6:00 AM)29.92 "Hg (Sep 3, 6:00 AM)
Low73 °F (Sep 2, 5:00 AM)52% (Sep 2, 1:00 PM)29.65 "Hg (Sep 5, 2:00 PM)
Average82 °F78%29.77 "Hg
* Reported Sep 1 7:00 AM — Sep 16 7:30 AM, Ho Chi Minh, Weather by CustomWeather, © 2014

Note: Actual official high and low records may vary slightly from our data, if they occured in-between our weather recording intervals... More about our weather records

Advertising

Ho Chi Minh weather history for previous 24 hours

 ConditionsComfort  
Time TempWeatherWind HumidityBarometerVisibility
7:30 AM
Sep 16
79 °FPartly sunny.9 mph84%29.71 "HgN/A
7:00 AM77 °FPartly sunny.10 mph89%29.68 "HgN/A
6:30 AM77 °FLight rain. Partly sunny.9 mph83%29.68 "HgN/A
6:00 AM75 °FPartly sunny.8 mph89%29.65 "HgN/A
5:30 AM75 °FPartly cloudy.9 mph94%29.65 "HgN/A
5:00 AM75 °FPartly cloudy.9 mph94%29.65 "HgN/A
4:30 AM75 °FPartly cloudy.9 mph94%29.65 "HgN/A
4:00 AM75 °FRain showers. Passing clouds.22 mph94%29.65 "Hg1 mi
3:30 AM77 °FRain showers. Passing clouds.8 mph94%29.65 "Hg3 mi
3:00 AM79 °FPassing clouds.8 mph84%29.65 "HgN/A
2:30 AM77 °FPassing clouds.8 mph89%29.65 "HgN/A
2:00 AM77 °FPassing clouds.8 mph89%29.68 "HgN/A
1:30 AM77 °FPassing clouds.8 mph89%29.68 "HgN/A
1:00 AM77 °FPassing clouds.9 mph89%29.68 "HgN/A
12:30 AM79 °FPassing clouds.12 mph84%29.71 "HgN/A
12:00 AM77 °FPartly cloudy.12 mph89%29.71 "HgN/A
11:00 PM
Sep 15
79 °FPartly cloudy.9 mph84%29.71 "HgN/A
10:30 PM79 °FPartly cloudy.12 mph84%29.74 "HgN/A
10:00 PM79 °FPartly cloudy.8 mph79%29.74 "HgN/A
9:30 PM79 °FPartly cloudy.7 mph79%29.74 "HgN/A
9:00 PM79 °FPartly cloudy.9 mph79%29.74 "HgN/A
8:30 PM79 °FPartly cloudy.8 mph79%29.74 "HgN/A
8:00 PM79 °FPartly cloudy.9 mph79%29.71 "HgN/A
7:30 PM79 °FPartly cloudy.10 mph79%29.71 "HgN/A
7:00 PM79 °FPartly cloudy.13 mph79%29.71 "HgN/A
6:30 PM79 °FPartly cloudy.14 mph79%29.68 "HgN/A
6:00 PM79 °FPartly cloudy.12 mph79%29.68 "HgN/A
5:30 PM79 °FBroken clouds.15 mph79%29.68 "HgN/A
5:00 PM81 °FPartly sunny.20 mph74%29.65 "HgN/A
4:30 PM81 °FPartly sunny.15 mph79%29.65 "HgN/A
4:00 PM82 °FPartly sunny.18 mph74%29.65 "HgN/A
3:30 PM82 °FPartly sunny.20 mph74%29.65 "HgN/A
3:00 PM82 °FPartly sunny.22 mph70%29.65 "HgN/A
2:30 PM82 °FLight rain. Partly sunny.18 mph74%29.65 "HgN/A
2:00 PM82 °FBroken clouds.17 mph74%29.65 "HgN/A
1:30 PM84 °FBroken clouds.17 mph70%29.68 "HgN/A
1:00 PM84 °FBroken clouds.18 mph70%29.68 "HgN/A
12:00 PM82 °FScattered clouds.20 mph70%29.71 "HgN/A
11:30 AM86 °FPartly sunny.15 mph70%29.71 "HgN/A
11:00 AM88 °FPartly sunny.18 mph66%29.74 "HgN/A
10:30 AM86 °FPartly sunny.16 mph66%29.74 "HgN/A
10:00 AM86 °FPartly sunny.14 mph70%29.74 "HgN/A
9:30 AM84 °FBroken clouds.13 mph74%29.74 "HgN/A
9:00 AM82 °FPartly sunny.13 mph79%29.74 "HgN/A
8:30 AM82 °FBroken clouds.14 mph79%29.77 "HgN/A
8:00 AM82 °FPartly sunny.13 mph79%29.74 "HgN/A
Weather by CustomWeather, © 2014

See weather overviewHow to use our weather pages